Regional Weather Roundup
Issued by NWS

Home | Current Version | Previous Version | Text Only | Print | Product List | Glossary Off
Versions: 1 2 3 4 5 6 7 8 9 10 11 12 13 14 15 16 17 18 19 20 21 22 23 24 25 26 27 28 29 30 31 32 33 34 35 36 37 38 39 40 41 42 43 44 45 46 47 48 49 50

000
ASUS43 KFSD 241002
RWRSD

WEATHER ROUNDUP FOR SOUTH DAKOTA
NATIONAL WEATHER SERVICE SIOUX FALLS SD
500 AM CDT SUN SEP 24 2017

NOTE: "FAIR" INDICATES FEW OR NO CLOUDS BELOW 12,000 FEET WITH NO
SIGNIFICANT WEATHER AND/OR OBSTRUCTIONS TO VISIBILITY.


SDZ001>005-009-010-012>017-241100-
NORTHWEST AND NORTH CENTRAL SOUTH DAKOTA

CITY           SKY/WX    TMP DP  RH WIND       PRES   REMARKS
BUFFALO          N/A     45  44  97 N9        29.98R
FAITH            N/A     46  46 100 N12       29.98R
MOBRIDGE       RAIN      52  50  93 N13       29.90S FOG
$$

SDZ012>016-024>037-041>051-057-063-072>074-241100-
SOUTHWEST AND SOUTH CENTRAL SOUTH DAKOTA

CITY           SKY/WX    TMP DP  RH WIND       PRES   REMARKS
RAPID CTY ARPT NOT AVBL
PIERRE         RAIN      52  51  97 N9        29.88F FOG
CUSTER         CLOUDY    40  37  89 CALM      29.98F
PHILIP         RAIN      48  48 100 N12       29.92F
PINE RIDGE     CLOUDY    46  46 100 NW10      29.98R
SPEARFISH      LGT RAIN  41  41 100 N8        30.02F
WINNER         LGT RAIN  53  51  93 W8        29.90S
$$

SDZ004>011-016>023-039-040-241100-
NORTHEAST SOUTH DAKOTA

CITY           SKY/WX    TMP DP  RH WIND       PRES   REMARKS
ABERDEEN       LGT RAIN  54  54 100 N5        29.87F
WATERTOWN      CLOUDY    61  61 100 SW7       29.87R
BROOKINGS      PTCLDY    60  58  92 S3        29.87F
SISSETON         N/A     60  60 100 VRB5      29.86R
$$

SDZ017-020-022-023-036>040-048>070-241100-
SOUTHEAST SOUTH DAKOTA

CITY           SKY/WX    TMP DP  RH WIND       PRES   REMARKS
SIOUX FALLS    PTCLDY    68  65  90 S12       29.86F
HURON          CLOUDY    56  56 100 E3        29.85F
CHAMBERLAIN    LGT RAIN  55  55 100 W6        29.88R
MITCHELL       CLOUDY    57  56  96 NE5       29.86F
$$

ABBREVIATIONS USED IN REMARKS
   TC - TEMPERATURE IN CELSIUS
  WCI - WIND CHILL INDEX
   HX - HEAT INDEX
  VSB - VISIBILITY




USA.gov is the U.S. government's official web portal to all federal, state and local government web resources and services.